When you browse on this site, cookies collect data to enhance your experience and personalize the content and advertising you see.
Visit our Privacy Policy to learn more. By continuing to use the site, you agree to this use of cookies and data.
  • In Schweiz
  • Länderverzeichnis
  • Für 7 Tage
  • Wassertemperatur
  • Wetterkarte
  • Widgets
  • user-avatar
    Anmelden

    Stündliche Wetter Sinee Uste

    Heute, 24 August, Samstag

    Zeit Temperatur Niederschläge Wind Luftdruck Luftfeuchtigkeit
    00:00 +15°C° 0 mm 4 m/S 762 mmHg 81%
    01:00 +15°C° 0 mm 4 m/S 762 mmHg 81%
    02:00 +15°C° 0 mm 4 m/S 762 mmHg 81%
    03:00 +15°C° 0 mm 4 m/S 761 mmHg 79%
    04:00 +15°C° 0 mm 4 m/S 761 mmHg 76%
    05:00 +17°C° 0 mm 4 m/S 761 mmHg 74%
    06:00 +17°C° 0 mm 4 m/S 761 mmHg 74%
    07:00 +18°C° 0 mm 4 m/S 761 mmHg 74%
    08:00 +18°C° 0 mm 4 m/S 761 mmHg 75%
    09:00 +19°C° 0 mm 4 m/S 761 mmHg 72%
    10:00 +20°C° 0 mm 4 m/S 761 mmHg 70%
    11:00 +22°C° 0 mm 4 m/S 761 mmHg 68%
    12:00 +22°C° 0.2 mm 4 m/S 761 mmHg 67%
    13:00 +22°C° 0.2 mm 4 m/S 761 mmHg 66%
    14:00 +22°C° 0.2 mm 3 m/S 761 mmHg 65%
    15:00 +22°C° 0 mm 3 m/S 761 mmHg 65%
    16:00 +23°C° 0 mm 2 m/S 761 mmHg 64%
    17:00 +24°C° 0 mm 2 m/S 761 mmHg 63%
    18:00 +21°C° 0 mm 2 m/S 762 mmHg 68%
    19:00 +19°C° 0 mm 2 m/S 762 mmHg 72%
    20:00 +17°C° 0 mm 2 m/S 762 mmHg 76%
    21:00 +16°C° 0 mm 2 m/S 763 mmHg 78%
    22:00 +15°C° 0 mm 2 m/S 763 mmHg 80%
    23:00 +14°C° 0 mm 2 m/S 763 mmHg 82%

    Morgen, 25 August, Sonntag

    Zeit Temperatur Niederschläge Wind Luftdruck Luftfeuchtigkeit
    00:00 +13°C° 0 mm 1 m/S 764 mmHg 85%
    01:00 +12°C° 0 mm 1 m/S 764 mmHg 88%
    02:00 +10°C° 0 mm 0 m/S 764 mmHg 92%
    03:00 +10°C° 0 mm 0 m/S 765 mmHg 92%
    04:00 +10°C° 0 mm 0 m/S 765 mmHg 92%
    05:00 +9°C° 0 mm 0 m/S 765 mmHg 93%
    06:00 +11°C° 0 mm 0 m/S 765 mmHg 86%
    07:00 +13°C° 0 mm 0 m/S 765 mmHg 80%
    08:00 +15°C° 0 mm 0 m/S 765 mmHg 74%
    09:00 +19°C° 0 mm 1 m/S 765 mmHg 69%
    10:00 +20°C° 0 mm 1 m/S 765 mmHg 64%
    11:00 +22°C° 0 mm 1 m/S 765 mmHg 58%
    12:00 +22°C° 0 mm 1 m/S 765 mmHg 56%
    13:00 +21°C° 0 mm 0 m/S 765 mmHg 54%
    14:00 +22°C° 0 mm 0 m/S 765 mmHg 51%
    15:00 +21°C° 0 mm 0 m/S 765 mmHg 54%
    16:00 +23°C° 0 mm 1 m/S 765 mmHg 56%
    17:00 +22°C° 0 mm 1 m/S 765 mmHg 59%
    18:00 +20°C° 0 mm 1 m/S 765 mmHg 65%
    19:00 +18°C° 0 mm 1 m/S 765 mmHg 71%
    20:00 +15°C° 0 mm 1 m/S 765 mmHg 77%
    21:00 +15°C° 0 mm 1 m/S 765 mmHg 79%
    22:00 +14°C° 0 mm 1 m/S 765 mmHg 81%
    23:00 +14°C° 0 mm 1 m/S 765 mmHg 83%

    übermorgen, 26 August, Montag

    Zeit Temperatur Niederschläge Wind Luftdruck Luftfeuchtigkeit
    00:00 +13°C° 0 mm 1 m/S 765 mmHg 85%
    01:00 +13°C° 0 mm 1 m/S 765 mmHg 87%
    02:00 +12°C° 0 mm 1 m/S 765 mmHg 89%
    03:00 +12°C° 0 mm 1 m/S 765 mmHg 90%
    04:00 +12°C° 0 mm 1 m/S 765 mmHg 90%
    05:00 +11°C° 0 mm 1 m/S 765 mmHg 90%
    06:00 +13°C° 0 mm 2 m/S 764 mmHg 85%
    07:00 +15°C° 0 mm 2 m/S 764 mmHg 79%
    08:00 +17°C° 0 mm 2 m/S 764 mmHg 73%
    09:00 +19°C° 0 mm 2 m/S 764 mmHg 68%
    10:00 +20°C° 0 mm 2 m/S 764 mmHg 63%
    11:00 +23°C° 0 mm 2 m/S 763 mmHg 58%
    12:00 +24°C° 0 mm 2 m/S 763 mmHg 57%
    13:00 +24°C° 0 mm 3 m/S 763 mmHg 55%
    14:00 +25°C° 0 mm 3 m/S 763 mmHg 54%
    15:00 +25°C° 0 mm 2 m/S 762 mmHg 59%
    16:00 +25°C° 0 mm 2 m/S 762 mmHg 63%
    17:00 +25°C° 0 mm 2 m/S 762 mmHg 67%
    18:00 +23°C° 0 mm 2 m/S 761 mmHg 73%
    19:00 +20°C° 0 mm 2 m/S 761 mmHg 79%
    20:00 +19°C° 0 mm 2 m/S 761 mmHg 85%
    21:00 +18°C° 0 mm 2 m/S 761 mmHg 87%
    22:00 +17°C° 0 mm 2 m/S 761 mmHg 90%
    23:00 +16°C° 0 mm 2 m/S 761 mmHg 92%

    27 August, Dienstag

    Zeit Temperatur Niederschläge Wind Luftdruck Luftfeuchtigkeit
    00:00 +16°C° 0 mm 2 m/S 761 mmHg 91%
    01:00 +15°C° 0 mm 2 m/S 761 mmHg 90%
    02:00 +14°C° 0 mm 2 m/S 761 mmHg 89%
    03:00 +14°C° 0 mm 2 m/S 761 mmHg 91%
    04:00 +14°C° 0 mm 2 m/S 761 mmHg 93%
    05:00 +13°C° 0 mm 2 m/S 761 mmHg 95%
    06:00 +15°C° 0 mm 2 m/S 761 mmHg 92%
    07:00 +16°C° 0 mm 2 m/S 762 mmHg 88%
    08:00 +17°C° 0 mm 2 m/S 762 mmHg 85%
    09:00 +19°C° 0 mm 2 m/S 762 mmHg 75%
    10:00 +20°C° 0 mm 3 m/S 762 mmHg 65%
    11:00 +22°C° 0 mm 3 m/S 762 mmHg 55%
    12:00 +22°C° 0 mm 3 m/S 762 mmHg 53%
    13:00 +22°C° 0 mm 3 m/S 762 mmHg 50%
    14:00 +22°C° 0 mm 3 m/S 762 mmHg 48%
    15:00 +22°C° 0 mm 3 m/S 762 mmHg 52%
    16:00 +22°C° 0 mm 3 m/S 762 mmHg 56%
    17:00 +21°C° 0 mm 2 m/S 762 mmHg 60%
    18:00 +19°C° 0 mm 2 m/S 763 mmHg 67%
    19:00 +17°C° 0 mm 2 m/S 763 mmHg 73%
    20:00 +15°C° 0 mm 2 m/S 763 mmHg 80%
    21:00 +15°C° 0 mm 2 m/S 763 mmHg 82%
    22:00 +14°C° 0 mm 2 m/S 764 mmHg 84%
    23:00 +13°C° 0 mm 1 m/S 764 mmHg 86%

    28 August, Mittwoch

    Zeit Temperatur Niederschläge Wind Luftdruck Luftfeuchtigkeit
    00:00 +13°C° 0 mm 1 m/S 764 mmHg 86%
    01:00 +12°C° 0 mm 1 m/S 764 mmHg 86%
    02:00 +12°C° 0 mm 1 m/S 764 mmHg 86%
    03:00 +11°C° 0 mm 1 m/S 764 mmHg 86%
    04:00 +11°C° 0 mm 1 m/S 765 mmHg 87%
    05:00 +11°C° 0 mm 1 m/S 765 mmHg 87%
    06:00 +12°C° 0 mm 1 m/S 765 mmHg 80%
    07:00 +14°C° 0 mm 1 m/S 765 mmHg 74%
    08:00 +16°C° 0 mm 1 m/S 765 mmHg 68%
    09:00 +18°C° 0 mm 1 m/S 765 mmHg 62%
    10:00 +20°C° 0 mm 1 m/S 765 mmHg 56%
    11:00 +20°C° 0 mm 2 m/S 765 mmHg 50%
    12:00 +21°C° 0 mm 2 m/S 765 mmHg 49%
    13:00 +21°C° 0 mm 2 m/S 765 mmHg 48%
    14:00 +23°C° 0 mm 2 m/S 764 mmHg 47%
    15:00 +23°C° 0 mm 2 m/S 764 mmHg 50%
    16:00 +22°C° 0 mm 1 m/S 764 mmHg 54%
    17:00 +22°C° 0 mm 1 m/S 764 mmHg 58%
    18:00 +19°C° 0 mm 2 m/S 764 mmHg 64%
    19:00 +17°C° 0 mm 2 m/S 764 mmHg 70%
    20:00 +15°C° 0 mm 2 m/S 764 mmHg 76%
    21:00 +14°C° 0 mm 2 m/S 764 mmHg 79%
    22:00 +14°C° 0 mm 2 m/S 764 mmHg 81%
    23:00 +13°C° 0 mm 2 m/S 764 mmHg 84%

    29 August, Donnerstag

    Zeit Temperatur Niederschläge Wind Luftdruck Luftfeuchtigkeit
    00:00 +13°C° 0 mm 2 m/S 764 mmHg 85%
    01:00 +12°C° 0 mm 1 m/S 764 mmHg 87%
    02:00 +12°C° 0 mm 1 m/S 764 mmHg 88%
    03:00 +12°C° 0 mm 1 m/S 764 mmHg 90%
    04:00 +12°C° 0 mm 1 m/S 764 mmHg 91%
    05:00 +11°C° 0 mm 1 m/S 764 mmHg 92%
    06:00 +13°C° 0 mm 1 m/S 764 mmHg 87%
    07:00 +14°C° 0 mm 2 m/S 764 mmHg 81%
    08:00 +16°C° 0 mm 2 m/S 764 mmHg 75%
    09:00 +18°C° 0 mm 2 m/S 764 mmHg 68%
    10:00 +19°C° 0 mm 2 m/S 764 mmHg 61%
    11:00 +21°C° 0 mm 2 m/S 764 mmHg 54%
    12:00 +21°C° 0 mm 2 m/S 763 mmHg 52%
    13:00 +23°C° 0 mm 2 m/S 763 mmHg 50%
    14:00 +24°C° 0 mm 2 m/S 763 mmHg 48%
    15:00 +23°C° 0 mm 2 m/S 763 mmHg 52%
    16:00 +23°C° 0 mm 1 m/S 763 mmHg 56%
    17:00 +23°C° 0 mm 1 m/S 762 mmHg 60%
    18:00 +21°C° 0 mm 1 m/S 762 mmHg 66%
    19:00 +19°C° 0 mm 1 m/S 762 mmHg 71%
    20:00 +16°C° 0 mm 1 m/S 762 mmHg 77%
    21:00 +15°C° 0 mm 1 m/S 763 mmHg 79%
    22:00 +14°C° 0 mm 1 m/S 763 mmHg 82%
    23:00 +13°C° 0 mm 1 m/S 763 mmHg 85%
    Mehr zeigen